• en France
  • Liste des pays
  • À 7 jours
  • Température de l'eau
  • Carte satellitaire
  • Carte météo
  • Widgets météo
  • user-avatar
    Se connecter

    Météo par heure à Mitu

    Ce jour, 21 Mai, Lundi

    Heure Température Précipitation Vent Pression Humidité
    00:00 +22°C° 0 mm 0 m/s 739 mmHg 97%
    01:00 +22°C° 0 mm 0 m/s 739 mmHg 97%
    02:00 +22°C° 0,9 mm 0 m/s 739 mmHg 98%
    03:00 +21°C° 0,9 mm 0 m/s 739 mmHg 98%
    04:00 +21°C° 0,9 mm 0 m/s 739 mmHg 98%
    05:00 +22°C° 0,7 mm 0 m/s 739 mmHg 98%
    06:00 +22°C° 0,7 mm 0 m/s 739 mmHg 97%
    07:00 +23°C° 0,7 mm 0 m/s 740 mmHg 97%
    08:00 +24°C° 1,1 mm 0 m/s 740 mmHg 95%
    09:00 +25°C° 1,1 mm 0 m/s 740 mmHg 93%
    10:00 +28°C° 1,1 mm 1 m/s 740 mmHg 91%
    11:00 +29°C° 0,9 mm 1 m/s 739 mmHg 87%
    12:00 +29°C° 0,9 mm 1 m/s 739 mmHg 83%
    13:00 +28°C° 0,9 mm 0 m/s 738 mmHg 79%
    14:00 +28°C° 0,4 mm 0 m/s 738 mmHg 80%
    15:00 +27°C° 0,4 mm 0 m/s 737 mmHg 81%
    16:00 +27°C° 0,4 mm 0 m/s 737 mmHg 82%
    17:00 +26°C° 0,2 mm 0 m/s 737 mmHg 87%
    18:00 +25°C° 0,2 mm 0 m/s 737 mmHg 91%
    19:00 +23°C° 0,2 mm 0 m/s 738 mmHg 96%
    20:00 +23°C° 0,5 mm 0 m/s 738 mmHg 97%
    21:00 +23°C° 0,5 mm 0 m/s 739 mmHg 97%
    22:00 +22°C° 0,5 mm 0 m/s 739 mmHg 98%
    23:00 +22°C° 0,2 mm 0 m/s 739 mmHg 98%

    Demain, 22 Mai, Mardi

    Heure Température Précipitation Vent Pression Humidité
    00:00 +22°C° 0,2 mm 0 m/s 739 mmHg 98%
    01:00 +22°C° 0,2 mm 0 m/s 739 mmHg 98%
    02:00 +22°C° 0,2 mm 0 m/s 739 mmHg 98%
    03:00 +21°C° 0,2 mm 0 m/s 738 mmHg 98%
    04:00 +21°C° 0,2 mm 0 m/s 738 mmHg 98%
    05:00 +22°C° 0 mm 0 m/s 739 mmHg 97%
    06:00 +22°C° 0 mm 0 m/s 739 mmHg 96%
    07:00 +23°C° 0 mm 0 m/s 740 mmHg 95%
    08:00 +24°C° 0,7 mm 0 m/s 740 mmHg 94%
    09:00 +25°C° 0,7 mm 0 m/s 740 mmHg 93%
    10:00 +28°C° 0,7 mm 1 m/s 740 mmHg 91%
    11:00 +29°C° 0 mm 1 m/s 740 mmHg 79%
    12:00 +31°C° 0 mm 1 m/s 739 mmHg 67%
    13:00 +33°C° 0 mm 1 m/s 738 mmHg 55%
    14:00 +32°C° 0,5 mm 1 m/s 738 mmHg 60%
    15:00 +32°C° 0,5 mm 1 m/s 737 mmHg 65%
    16:00 +29°C° 0,5 mm 0 m/s 737 mmHg 71%
    17:00 +27°C° 0,5 mm 0 m/s 737 mmHg 78%
    18:00 +25°C° 0,5 mm 0 m/s 738 mmHg 86%
    19:00 +23°C° 0,5 mm 0 m/s 738 mmHg 93%
    20:00 +23°C° 0,5 mm 0 m/s 739 mmHg 95%
    21:00 +22°C° 0,5 mm 0 m/s 739 mmHg 96%
    22:00 +22°C° 0,5 mm 0 m/s 740 mmHg 97%
    23:00 +22°C° 1,2 mm 0 m/s 739 mmHg 98%

    Après-demain, 23 Mai, Mercredi

    Heure Température Précipitation Vent Pression Humidité
    00:00 +22°C° 1,2 mm 0 m/s 739 mmHg 98%
    01:00 +22°C° 1,2 mm 0 m/s 739 mmHg 98%
    02:00 +21°C° 0,6 mm 0 m/s 739 mmHg 98%
    03:00 +21°C° 0,6 mm 0 m/s 739 mmHg 98%
    04:00 +21°C° 0,6 mm 0 m/s 739 mmHg 98%
    05:00 +22°C° 0,2 mm 0 m/s 739 mmHg 98%
    06:00 +22°C° 0,2 mm 0 m/s 740 mmHg 98%
    07:00 +22°C° 0,2 mm 0 m/s 740 mmHg 98%
    08:00 +23°C° 0,7 mm 0 m/s 741 mmHg 97%
    09:00 +23°C° 0,7 mm 0 m/s 741 mmHg 97%
    10:00 +24°C° 0,7 mm 0 m/s 741 mmHg 97%
    11:00 +24°C° 0,5 mm 0 m/s 741 mmHg 96%
    12:00 +23°C° 0,5 mm 0 m/s 740 mmHg 96%
    13:00 +25°C° 0,5 mm 1 m/s 740 mmHg 95%
    14:00 +23°C° 0,2 mm 0 m/s 739 mmHg 95%
    15:00 +23°C° 0,2 mm 0 m/s 738 mmHg 95%
    16:00 +23°C° 0,2 mm 0 m/s 738 mmHg 96%
    17:00 +23°C° 0,1 mm 0 m/s 738 mmHg 96%
    18:00 +22°C° 0,1 mm 0 m/s 739 mmHg 97%
    19:00 +22°C° 0,1 mm 0 m/s 739 mmHg 98%
    20:00 +22°C° 0,2 mm 0 m/s 740 mmHg 98%
    21:00 +22°C° 0,2 mm 0 m/s 740 mmHg 98%
    22:00 +21°C° 0,2 mm 0 m/s 741 mmHg 98%
    23:00 +21°C° 0,5 mm 0 m/s 741 mmHg 98%

    24 Mai, Jeudi

    Heure Température Précipitation Vent Pression Humidité
    00:00 +21°C° 0,5 mm 0 m/s 740 mmHg 98%
    01:00 +21°C° 0,5 mm 0 m/s 740 mmHg 98%
    02:00 +21°C° 0,3 mm 0 m/s 740 mmHg 98%
    03:00 +21°C° 0,3 mm 0 m/s 740 mmHg 99%
    04:00 +21°C° 0,3 mm 0 m/s 740 mmHg 99%
    05:00 +21°C° 0,6 mm 0 m/s 740 mmHg 99%
    06:00 +21°C° 0,6 mm 0 m/s 741 mmHg 98%
    07:00 +21°C° 0,6 mm 0 m/s 741 mmHg 98%
    08:00 +22°C° 0,5 mm 0 m/s 741 mmHg 98%
    09:00 +22°C° 0,5 mm 0 m/s 742 mmHg 97%
    10:00 +23°C° 0,5 mm 0 m/s 742 mmHg 97%
    11:00 +25°C° 0,6 mm 0 m/s 741 mmHg 90%
    12:00 +26°C° 0,6 mm 0 m/s 740 mmHg 83%
    13:00 +30°C° 0,6 mm 1 m/s 739 mmHg 76%
    14:00 +28°C° 1,4 mm 0 m/s 739 mmHg 79%
    15:00 +27°C° 1,4 mm 0 m/s 738 mmHg 83%
    16:00 +27°C° 1,4 mm 0 m/s 738 mmHg 86%
    17:00 +25°C° 1 mm 0 m/s 738 mmHg 89%
    18:00 +24°C° 1 mm 0 m/s 739 mmHg 93%
    19:00 +23°C° 1 mm 0 m/s 739 mmHg 96%
    20:00 +23°C° 0,5 mm 0 m/s 740 mmHg 96%
    21:00 +22°C° 0,5 mm 0 m/s 740 mmHg 97%
    22:00 +22°C° 0,5 mm 0 m/s 741 mmHg 97%
    23:00 +22°C° 1 mm 0 m/s 740 mmHg 97%

    25 Mai, Vendredi

    Heure Température Précipitation Vent Pression Humidité
    00:00 +22°C° 1 mm 0 m/s 740 mmHg 98%
    01:00 +22°C° 1 mm 0 m/s 740 mmHg 98%
    02:00 +22°C° 0,7 mm 0 m/s 739 mmHg 98%
    03:00 +22°C° 0,7 mm 0 m/s 739 mmHg 99%
    04:00 +21°C° 0,7 mm 0 m/s 739 mmHg 99%
    05:00 +22°C° 0,5 mm 0 m/s 740 mmHg 99%
    06:00 +22°C° 0,5 mm 0 m/s 740 mmHg 99%
    07:00 +22°C° 0,5 mm 0 m/s 741 mmHg 98%
    08:00 +22°C° 0,5 mm 0 m/s 741 mmHg 98%
    09:00 +23°C° 0,5 mm 0 m/s 741 mmHg 97%
    10:00 +23°C° 0,5 mm 0 m/s 741 mmHg 96%
    11:00 +24°C° 0,5 mm 0 m/s 741 mmHg 96%
    12:00 +24°C° 0,5 mm 0 m/s 740 mmHg 95%
    13:00 +24°C° 0,5 mm 0 m/s 739 mmHg 94%
    14:00 +26°C° 0,8 mm 1 m/s 739 mmHg 95%
    15:00 +26°C° 0,8 mm 1 m/s 739 mmHg 96%
    16:00 +25°C° 0,8 mm 1 m/s 738 mmHg 97%
    17:00 +25°C° 0,5 mm 1 m/s 739 mmHg 98%
    18:00 +24°C° 0,5 mm 1 m/s 739 mmHg 98%
    19:00 +24°C° 0,5 mm 1 m/s 740 mmHg 99%
    20:00 +24°C° 0,2 mm 1 m/s 740 mmHg 99%
    21:00 +23°C° 0,2 mm 1 m/s 740 mmHg 99%
    22:00 +21°C° 0,2 mm 0 m/s 741 mmHg 99%
    23:00 +21°C° 0,4 mm 0 m/s 740 mmHg 99%

    26 Mai, Samedi

    Heure Température Précipitation Vent Pression Humidité
    00:00 +21°C° 0,4 mm 0 m/s 740 mmHg 99%
    01:00 +21°C° 0,4 mm 0 m/s 739 mmHg 99%
    02:00 +21°C° 0,2 mm 0 m/s 739 mmHg 99%
    03:00 +21°C° 0,2 mm 0 m/s 739 mmHg 99%
    04:00 +21°C° 0,2 mm 0 m/s 739 mmHg 99%
    05:00 +21°C° 0,2 mm 0 m/s 740 mmHg 99%
    06:00 +21°C° 0,2 mm 0 m/s 740 mmHg 99%
    07:00 +21°C° 0,2 mm 0 m/s 741 mmHg 99%
    08:00 +21°C° 0,3 mm 0 m/s 741 mmHg 98%
    09:00 +21°C° 0,3 mm 0 m/s 741 mmHg 98%
    10:00 +22°C° 0,3 mm 0 m/s 741 mmHg 98%
    11:00 +22°C° 0,4 mm 0 m/s 740 mmHg 97%
    12:00 +23°C° 0,4 mm 0 m/s 740 mmHg 96%
    13:00 +23°C° 0,4 mm 0 m/s 739 mmHg 95%
    14:00 +23°C° 0,3 mm 0 m/s 739 mmHg 95%
    15:00 +23°C° 0,3 mm 0 m/s 738 mmHg 95%
    16:00 +24°C° 0,3 mm 0 m/s 738 mmHg 95%
    17:00 +23°C° 0 mm 0 m/s 738 mmHg 97%
    18:00 +22°C° 0 mm 0 m/s 738 mmHg 98%
    19:00 +22°C° 0 mm 0 m/s 739 mmHg 99%
    20:00 +22°C° 0 mm 0 m/s 739 mmHg 99%
    21:00 +22°C° 0 mm 0 m/s 739 mmHg 99%
    22:00 +21°C° 0 mm 0 m/s 740 mmHg 99%
    23:00 +21°C° 0,4 mm 0 m/s 740 mmHg 99%
    Voir plus